E1763 Weather Reports


time (UTC)temp
C
wind
direction
speed
KPH
gust
KPH
rain 1hr
cm
rain 24hr
cm
rain mn
cm
humidity
%
barometer
mb
20260902213040 21 219 0.0 0.0 0.00 0.05 0.03 67 1011.3
20260902211540 21 218 0.0 0.0 0.00 0.05 0.03 66 1011.2
20260902210037 20 213 0.0 0.0 0.00 0.05 0.03 68 1011.2
20260902204540 20 223 0.0 0.0 0.00 0.05 0.03 69 1011.2
20260902203037 20 186 0.0 0.0 0.00 0.05 0.03 70 1011.3
20260902201547 20 220 0.0 0.0 0.00 0.05 0.03 70 1011.3
20260902200050 20 246 0.0 0.0 0.00 0.05 0.03 72 1011.3
20260902194535 20 209 0.0 0.0 0.00 0.05 0.03 72 1011.4
20260902193035 20 250 0.0 0.0 0.00 0.05 0.03 71 1011.4
20260902191535 21 256 0.0 0.0 0.00 0.05 0.03 70 1011.4
20260902190045 19 200 0.0 0.0 0.00 0.05 0.03 76 1011.6
20260902184531 18 245 0.0 0.0 0.00 0.13 0.03 75 1011.7
20260902183023 18 248 0.0 0.0 0.00 0.13 0.03 79 1011.7
20260902181520 18 209 0.0 3.2 0.00 0.13 0.03 82 1011.7
20260902180018 18 238 0.0 0.0 0.00 0.13 0.03 83 1011.7
20260902174517 18 131 0.0 0.0 0.00 0.23 0.03 86 1011.6
20260902173012 16 221 0.0 0.0 0.00 0.23 0.03 91 1011.6
20260902171509 16 197 0.0 8.0 0.00 0.23 0.03 93 1011.2
20260902170008 15 231 0.0 0.0 0.00 0.23 0.03 93 1011.2
20260902164511 15 169 0.0 0.0 0.00 0.25 0.03 94 1011.2
20260902163005 15 189 0.0 0.0 0.00 0.25 0.03 95 1011.2
20260902161507 15 206 0.0 0.0 0.00 0.25 0.03 95 1011.1
20260902160001 15 180 0.0 0.0 0.00 0.25 0.03 95 1011.0
20260902154603 15 180 0.0 0.0 0.00 0.41 0.03 95 1010.8
20260902153057 15 180 0.0 0.0 0.00 0.41 0.03 95 1010.6
20260902151557 15 180 0.0 0.0 0.00 0.41 0.03 95 1010.5
20260902150053 14 176 0.0 0.0 0.00 0.41 0.03 95 1010.3
20260902144551 14 192 0.0 4.8 0.00 0.53 0.03 95 1010.3
20260902143050 13 167 0.0 0.0 0.00 0.53 0.03 94 1010.3
20260902141649 13 179 0.0 0.0 0.00 0.53 0.03 94 1010.2
20260902140049 14 212 0.0 0.0 0.00 0.53 0.03 94 1010.2
20260902134547 14 188 0.0 0.0 0.00 0.53 0.03 94 1010.0
20260902133047 14 188 0.0 0.0 0.00 0.53 0.03 93 1009.8
20260902131545 14 198 0.0 0.0 0.00 0.53 0.03 93 1009.6
20260902130044 14 215 0.0 0.0 0.00 0.53 0.03 92 1009.4
20260902124556 14 200 0.0 0.0 0.00 0.53 0.03 92 1009.3
20260902123045 14 101 0.0 0.0 0.00 0.53 0.03 92 1009.3
20260902121546 14 81 0.0 0.0 0.00 0.53 0.03 92 1009.0
20260902120041 14 68 0.0 0.0 0.00 0.53 0.03 92 1009.1
20260902114539 14 101 0.0 0.0 8.69 0.00 0.03 92 1009.3
20260902113040 14 69 0.0 0.0 0.00 0.53 0.03 91 1009.3
20260902111548 14 9 0.0 1.6 0.00 0.53 0.03 91 1009.2
20260902110038 13 78 0.0 0.0 0.00 0.53 0.03 91 1009.3
20260902104541 14 24 0.0 0.0 0.00 0.53 0.03 91 1009.4
20260902103034 14 109 0.0 0.0 0.00 0.53 0.03 92 1009.3
20260902101538 13 47 0.0 0.0 0.03 0.53 0.03 92 1009.3
20260902100033 13 107 0.0 0.0 0.03 0.53 0.03 93 1009.3
20260902094526 13 173 0.0 0.0 0.03 0.53 0.03 94 1009.7
20260902093025 13 53 0.0 0.0 0.03 0.53 0.03 94 1009.8
20260902091536 13 112 0.0 0.0 0.00 0.51 0.00 95 1010.0
20260902090022 13 35 0.0 0.0 0.00 0.51 0.00 95 1010.0
20260902084521 13 189 0.0 0.0 0.00 0.51 0.00 95 1010.1
20260902083020 12 170 0.0 0.0 0.00 0.51 0.00 95 1010.0
20260902081519 12 34 0.0 0.0 0.00 0.51 0.00 95 1010.1
20260902080017 12 44 0.0 0.0 0.00 0.51 0.00 95 1010.0
20260902074516 13 44 0.0 0.0 0.00 0.51 0.00 95 1010.0
20260902073018 13 64 0.0 0.0 0.00 0.51 0.00 95 1010.0
20260902071521 12 40 0.0 0.0 0.00 0.51 0.00 95 1010.0
20260902070016 13 39 0.0 0.0 0.00 0.51 0.00 95 1009.9
20260902064511 13 31 0.0 0.0 0.00 0.51 0.51 94 1010.0
20260902063014 13 44 0.0 0.0 0.00 0.51 0.51 94 1010.1
20260902061510 13 44 0.0 0.0 0.00 0.51 0.51 94 1010.1
20260902060016 13 44 0.0 0.0 0.03 0.51 0.51 94 1010.2
20260902054512 13 50 0.0 0.0 0.03 0.51 0.51 93 1010.3
20260902053011 12 50 0.0 0.0 0.03 0.51 0.51 93 1010.3
20260902051507 13 50 0.0 0.0 0.03 0.51 0.51 93 1010.3
20260902050009 13 50 0.0 0.0 0.00 0.48 0.48 92 1010.3
20260902044506 13 49 0.0 0.0 0.00 0.48 0.48 91 1010.1
20260902043003 13 237 0.0 0.0 0.00 0.48 0.48 91 1010.0
20260902041608 13 236 0.0 0.0 0.00 0.48 0.48 90 1009.7
20260902040100 14 237 0.0 0.0 0.00 0.48 0.48 90 1009.6
20260902034559 14 200 0.0 0.0 0.00 0.48 0.48 90 1009.2
20260902033110 14 40 0.0 8.0 0.00 0.48 0.48 91 1008.8
20260902031557 15 58 0.0 0.0 0.00 0.48 0.48 90 1008.9
20260902030056 15 13 0.0 0.0 0.00 0.48 0.48 90 1009.6
20260902024556 15 13 0.0 0.0 0.00 0.48 0.48 89 1009.7
20260902023108 15 13 0.0 0.0 0.00 0.48 0.48 88 1010.0
20260902021612 16 13 0.0 0.0 0.00 0.48 0.48 88 1009.7
20260902020059 16 13 0.0 1.6 0.00 0.48 0.48 87 1009.8
20260902014554 16 180 0.0 0.0 0.00 0.48 0.48 85 1010.0
20260902013054 16 206 0.0 0.0 0.00 0.48 0.48 84 1010.1
20260902011554 16 218 0.0 0.0 0.00 0.48 0.48 84 1010.0
20260902010100 16 237 0.0 0.0 0.00 0.48 0.48 82 1010.1
20260902004553 17 202 0.0 0.0 0.00 0.48 0.48 80 1010.1
20260902003052 17 258 0.0 0.0 0.00 0.48 0.48 78 1010.0
20260902001552 18 232 0.0 0.0 0.00 0.48 0.48 76 1009.9
20260902000056 18 227 0.0 0.0 0.00 0.48 0.48 74 1009.7
20260901234609 18 223 0.0 0.0 0.00 0.48 0.48 73 1009.5
20260901233050 20 248 0.0 0.0 0.00 0.48 0.48 74 1009.4
20260901231551 20 251 0.0 9.7 0.00 0.48 0.48 74 1009.4
20260901230125 19 240 0.0 1.6 0.00 0.48 0.48 74 1009.5
20260901224542 18 225 0.0 0.0 0.00 0.48 0.48 82 1009.5
20260901223104 18 208 0.0 1.6 0.00 0.48 0.48 83 1009.7
20260901221540 18 256 0.0 0.0 0.00 0.48 0.48 84 1009.9
20260901220042 17 301 0.0 0.0 0.00 0.48 0.48 83 1010.0
20260901214537 17 173 0.0 0.0 0.00 0.48 0.48 89 1010.0